This is the latest recevied weather packets stored in our database for station/object KC7WRB. If no packets are shown the sender has not sent any weather packets the latest 10 day(s).
| Time | Temp. | Humidity | Pressure | Rain* | Wind** | Luminosity | Snow |
|---|---|---|---|---|---|---|---|
| 1777602648 | 18.33° C | 19% | 1016.1 hPa | 0 mm | - | 15 W/m² | - |
| 1777602342 | 18.33° C | 19% | 1016.2 hPa | 0 mm | - | 19 W/m² | - |
| 1777602039 | 18.33° C | 19% | 1016 hPa | 0 mm | - | 24 W/m² | - |
| 1777601733 | 18.89° C | 18% | 1016.2 hPa | 0 mm | - | 30 W/m² | - |
| 1777601429 | 18.89° C | 18% | 1015.9 hPa | 0 mm | - | 38 W/m² | - |
| 1777601126 | 18.89° C | 19% | 1015.9 hPa | 0 mm | - | 39 W/m² | - |
| 1777600823 | 18.89° C | 19% | 1016 hPa | 0 mm | - | 42 W/m² | - |
| 1777600518 | 18.89° C | 18% | 1016 hPa | 0 mm | - | 56 W/m² | - |
| 1777600215 | 19.44° C | 18% | 1015.5 hPa | 0 mm | - | 45 W/m² | - |
| 1777599910 | 18.89° C | 19% | 1015.9 hPa | 0 mm | - | 66 W/m² | - |
| 1777599607 | 19.44° C | 22% | 1016 hPa | 0 mm | - | 81 W/m² | - |
| 1777599304 | 19.44° C | 20% | 1016.2 hPa | 0 mm | - | 91 W/m² | - |
| 1777599000 | 20° C | 19% | 1015.9 hPa | 0 mm | - | 96 W/m² | - |
| 1777598697 | 20° C | 18% | 1016.1 hPa | 0 mm | - | 111 W/m² | - |
| 1777598393 | 20° C | 18% | 1015.9 hPa | 0 mm | - | 127 W/m² | - |
| 1777598092 | 20° C | 18% | 1016.1 hPa | 0 mm | - | 150 W/m² | - |
| 1777597791 | 20° C | 19% | 1015.6 hPa | 0 mm | - | 132 W/m² | - |
| 1777597486 | 20° C | 18% | 1016 hPa | 0 mm | - | 178 W/m² | - |
| 1777597182 | 20° C | 18% | 1016.1 hPa | 0 mm | - | 188 W/m² | - |
| 1777596878 | 20.56° C | 18% | 1016 hPa | 0 mm | - | 214 W/m² | - |
| 1777596574 | 20.56° C | 18% | 1016 hPa | 0 mm | - | 239 W/m² | - |
| 1777596271 | 20.56° C | 18% | 1016.1 hPa | 0 mm | - | 259 W/m² | - |
| 1777595968 | 20.56° C | 18% | 1015.7 hPa | 0 mm | - | 283 W/m² | - |
| 1777595663 | 21.11° C | 18% | 1015.9 hPa | 0 mm | - | 313 W/m² | - |
| 1777595359 | 20.56° C | 18% | 1015.7 hPa | 0 mm | - | 354 W/m² | - |
* Rain latest hour (hover to see other rain measurements)
** Current wind speed in m/s (hover to see current wind gust speed)